37.1°F
Current conditions from King Hill
Updated every 5 minutes
 
  Tuesday November 25, 2014

Station Historical Data
Daily Summary for January 1, 2012 Units:  Metric    English   Both
« Previous Day
Next Day »
Daily Weekly Monthly Yearly Custom
  High: Low: Average:
Temperature: 5.9 °C -1.3 °C 1.9 °C
Dew Point: 3.4 °C -2.2 °C 0.3 °C
Humidity: 95% 79% 89%
Wind Speed: 17.7km/h 1.6km/h 7.9km/h
Wind Gust: 40.2km/h - -
Wind- - South
Pressure: 1016.1 hPa 997.2 hPa -
Precipitation: 0 mm    
Historical Graphs
 
 
Tabular Data for January 1, 2012
Time Temperature Dew Point Pressure Wind Wind Speed Wind Gust Humidity Daily Rainfall
00:00 -0.6 °C -1.4 °C 1014.8 hPa NE 1.6 km/h 6.4 km/h 94% 0 mm
00:05 -0.6 °C -1.4 °C 1014.8 hPa Calm   6.4 km/h 94% 0 mm
00:10 -0.7 °C -1.5 °C 1014.8 hPa Calm   6.4 km/h 94% 0 mm
00:15 -0.7 °C -1.5 °C 1014.8 hPa Calm   4.8 km/h 94% 0 mm
00:20 -0.7 °C -1.6 °C 1014.8 hPa Calm   6.4 km/h 94% 0 mm
00:25 -0.8 °C -1.6 °C 1014.8 hPa Calm   6.4 km/h 94% 0 mm
00:30 -0.8 °C -1.6 °C 1014.4 hPa Calm   4.8 km/h 94% 0 mm
00:35 -0.8 °C -1.6 °C 1014.4 hPa Calm   3.2 km/h 94% 0 mm
00:40 -0.8 °C -1.6 °C 1014.4 hPa NE 1.6 km/h 4.8 km/h 94% 0 mm
00:45 -0.8 °C -1.6 °C 1014.8 hPa Calm   4.8 km/h 94% 0 mm
00:50 -0.8 °C -1.7 °C 1014.4 hPa Calm   3.2 km/h 94% 0 mm
00:55 -0.8 °C -1.7 °C 1014.4 hPa Calm   3.2 km/h 94% 0 mm
01:00 -0.8 °C -1.7 °C 1014.4 hPa Calm     94% 0 mm
01:05 -0.8 °C -1.7 °C 1014.4 hPa Calm     94% 0 mm
01:10 -0.8 °C -1.6 °C 1014.8 hPa Calm     94% 0 mm
01:15 -0.8 °C -1.6 °C 1014.8 hPa Calm     94% 0 mm
01:20 -0.8 °C -1.6 °C 1014.8 hPa Calm     94% 0 mm
01:25 -0.8 °C -1.6 °C 1014.8 hPa Calm     94% 0 mm
01:30 -0.8 °C -1.6 °C 1015.1 hPa Calm     94% 0 mm
01:35 -0.7 °C -1.6 °C 1015.1 hPa Calm     94% 0 mm
01:40 -0.7 °C -1.6 °C 1015.1 hPa NE 1.6 km/h 6.4 km/h 94% 0 mm
01:45 -0.7 °C -1.6 °C 1015.5 hPa NE 1.6 km/h 6.4 km/h 94% 0 mm
01:50 -0.7 °C -1.6 °C 1015.5 hPa Calm   6.4 km/h 94% 0 mm
01:55 -0.7 °C -1.6 °C 1015.5 hPa Calm   4.8 km/h 94% 0 mm
02:00 -0.7 °C -1.6 °C 1015.5 hPa Calm   4.8 km/h 94% 0 mm
02:05 -0.8 °C -1.6 °C 1015.5 hPa NNE 1.6 km/h 8 km/h 94% 0 mm
02:10 -0.8 °C -1.6 °C 1015.5 hPa NNE 1.6 km/h 8 km/h 94% 0 mm
02:15 -0.8 °C -1.7 °C 1015.5 hPa NNE 1.6 km/h 6.4 km/h 94% 0 mm
02:20 -0.8 °C -1.7 °C 1015.5 hPa Calm   6.4 km/h 94% 0 mm
02:25 -0.9 °C -1.7 °C 1015.8 hPa Calm     94% 0 mm
02:30 -0.9 °C -1.8 °C 1015.5 hPa Calm     94% 0 mm
02:35 -1.1 °C -1.9 °C 1015.5 hPa Calm   3.2 km/h 94% 0 mm
02:40 -1.1 °C -1.9 °C 1015.5 hPa NNE 1.6 km/h 6.4 km/h 94% 0 mm
02:45 -1.1 °C -1.9 °C 1015.5 hPa Calm   6.4 km/h 94% 0 mm
02:50 -1.1 °C -1.9 °C 1015.5 hPa Calm     94% 0 mm
02:55 -1.1 °C -1.9 °C 1015.5 hPa Calm     94% 0 mm
03:00 -1.1 °C -1.9 °C 1015.5 hPa Calm     94% 0 mm
03:05 -1.1 °C -1.9 °C 1015.5 hPa Calm     94% 0 mm
03:10 -1.1 °C -1.9 °C 1015.5 hPa Calm     94% 0 mm
03:15 -1.1 °C -1.9 °C 1015.5 hPa Calm     94% 0 mm
03:20 -1.1 °C -1.9 °C 1015.5 hPa Calm     94% 0 mm
03:30 -1.1 °C -1.9 °C 1015.5 hPa Calm     94% 0 mm
03:35 -1.1 °C -1.9 °C 1015.5 hPa Calm     94% 0 mm
03:40 -1.2 °C -2 °C 1015.5 hPa Calm     94% 0 mm
03:45 -1.2 °C -2.1 °C 1015.8 hPa Calm   4.8 km/h 94% 0 mm
03:50 -1.3 °C -2.1 °C 1015.5 hPa Calm   4.8 km/h 94% 0 mm
03:55 -1.3 °C -2.1 °C 1015.5 hPa Calm     94% 0 mm
04:00 -1.3 °C -2.1 °C 1015.5 hPa Calm     94% 0 mm
04:05 -1.3 °C -2.1 °C 1015.5 hPa Calm     94% 0 mm
04:15 -1.3 °C -2.2 °C 1015.8 hPa Calm     94% 0 mm
04:20 -1.3 °C -2.1 °C 1015.8 hPa Calm     94% 0 mm
04:25 -1.3 °C -2.1 °C 1015.8 hPa Calm     94% 0 mm
04:30 -1.3 °C -2.1 °C 1015.8 hPa Calm     94% 0 mm
04:35 -1.2 °C -2.1 °C 1015.8 hPa Calm     94% 0 mm
04:40 -1.2 °C -2 °C 1015.8 hPa Calm     94% 0 mm
04:45 -1.2 °C -2 °C 1015.8 hPa Calm     94% 0 mm
04:50 -1.1 °C -1.9 °C 1015.8 hPa Calm     94% 0 mm
04:55 -1.1 °C -1.9 °C 1015.8 hPa Calm     94% 0 mm
05:00 -1.1 °C -1.9 °C 1015.5 hPa Calm     94% 0 mm
05:05 -1.1 °C -1.9 °C 1015.5 hPa Calm     94% 0 mm
05:10 -1.1 °C -1.9 °C 1015.8 hPa Calm     94% 0 mm
05:15 -1 °C -1.8 °C 1015.8 hPa Calm     94% 0 mm
05:20 -1 °C -1.8 °C 1015.8 hPa Calm     94% 0 mm
05:25 -0.9 °C -1.8 °C 1015.8 hPa Calm     94% 0 mm
05:30 -0.9 °C -1.8 °C 1015.8 hPa Calm     94% 0 mm
05:35 -0.9 °C -1.8 °C 1015.8 hPa Calm     94% 0 mm
05:40 -0.9 °C -1.8 °C 1015.8 hPa Calm     94% 0 mm
05:45 -0.9 °C -1.8 °C 1015.8 hPa Calm     94% 0 mm
05:50 -0.9 °C -1.7 °C 1015.8 hPa Calm     94% 0 mm
05:55 -0.9 °C -1.7 °C 1015.8 hPa Calm     94% 0 mm
06:00 -0.8 °C -1.7 °C 1016.1 hPa Calm     94% 0 mm
06:05 -0.8 °C -1.7 °C 1016.1 hPa Calm     94% 0 mm
06:10 -0.8 °C -1.7 °C 1016.1 hPa Calm     94% 0 mm
06:15 -0.8 °C -1.6 °C 1016.1 hPa Calm     94% 0 mm
06:20 -0.8 °C -1.6 °C 1016.1 hPa Calm     94% 0 mm
06:25 -0.8 °C -1.6 °C 1016.1 hPa Calm     94% 0 mm
06:30 -0.7 °C -1.6 °C 1015.8 hPa Calm     94% 0 mm
06:35 -0.7 °C -1.6 °C 1015.8 hPa Calm     94% 0 mm
06:40 -0.7 °C -1.6 °C 1015.8 hPa Calm     94% 0 mm
06:45 -0.7 °C -1.6 °C 1015.8 hPa Calm     94% 0 mm
06:49 -0.7 °C -1.5 °C 1015.8 hPa Calm     94% 0 mm
06:55 -0.7 °C -1.5 °C 1015.8 hPa Calm     94% 0 mm
07:00 -0.7 °C -1.5 °C 1015.8 hPa Calm     94% 0 mm
07:05 -0.7 °C -1.6 °C 1015.8 hPa Calm     94% 0 mm
07:10 -0.7 °C -1.5 °C 1015.5 hPa Calm     94% 0 mm
07:15 -0.7 °C -1.6 °C 1015.5 hPa Calm     94% 0 mm
07:20 -0.7 °C -1.5 °C 1015.5 hPa Calm     94% 0 mm
07:25 -0.7 °C -1.5 °C 1015.8 hPa Calm     94% 0 mm
07:30 -0.7 °C -1.5 °C 1015.8 hPa Calm     94% 0 mm
07:35 -0.6 °C -1.4 °C 1015.8 hPa Calm     94% 0 mm
07:40 -0.6 °C -1.4 °C 1015.8 hPa Calm     94% 0 mm
07:45 -0.6 °C -1.4 °C 1015.5 hPa Calm     94% 0 mm
07:50 -0.6 °C -1.4 °C 1015.8 hPa Calm     94% 0 mm
07:55 -0.5 °C -1.3 °C 1015.8 hPa Calm     94% 0 mm
08:00 -0.4 °C -1.2 °C 1015.5 hPa Calm     95% 0 mm
08:05 -0.4 °C -1.1 °C 1015.5 hPa Calm     95% 0 mm
08:10 -0.3 °C -1.1 °C 1015.5 hPa Calm     95% 0 mm
08:15 -0.3 °C -1.1 °C 1015.5 hPa Calm     95% 0 mm
08:20 -0.3 °C -1.1 °C 1015.5 hPa Calm     94% 0 mm
08:25 -0.3 °C -1.1 °C 1015.5 hPa Calm     94% 0 mm
08:30 -0.2 °C -1.1 °C 1015.5 hPa Calm     94% 0 mm
08:35 -0.2 °C -1 °C 1015.5 hPa Calm     94% 0 mm
08:40 -0.1 °C -0.8 °C 1015.5 hPa Calm     95% 0 mm
08:45 -0.1 °C -0.8 °C 1015.5 hPa Calm     95% 0 mm
08:50 -0.1 °C -0.8 °C 1015.5 hPa Calm     95% 0 mm
08:55 -0.1 °C -0.8 °C 1015.8 hPa Calm     95% 0 mm
09:00 0 °C -0.7 °C 1015.8 hPa Calm     95% 0 mm
09:05 0 °C -0.7 °C 1015.8 hPa Calm     95% 0 mm
09:10 0.1 °C -0.7 °C 1015.8 hPa Calm     95% 0 mm
09:15 0.2 °C -0.6 °C 1015.8 hPa Calm     95% 0 mm
09:20 0.2 °C -0.5 °C 1015.8 hPa Calm     95% 0 mm
09:25 0.3 °C -0.4 °C 1015.5 hPa Calm     95% 0 mm
09:30 0.3 °C -0.4 °C 1015.5 hPa Calm   6.4 km/h 95% 0 mm
09:35 0.3 °C -0.4 °C 1015.5 hPa South 3.2 km/h 9.7 km/h 95% 0 mm
09:40 0.3 °C -0.4 °C 1015.1 hPa South 3.2 km/h 9.7 km/h 95% 0 mm
09:50 0.3 °C -0.4 °C 1015.1 hPa SSW 3.2 km/h 11.3 km/h 95% 0 mm
09:55 0.2 °C -0.6 °C 1015.1 hPa SSW 4.8 km/h 11.3 km/h 95% 0 mm
10:00 0.2 °C -0.6 °C 1015.1 hPa SSW 4.8 km/h 11.3 km/h 95% 0 mm
10:05 0.2 °C -0.6 °C 1014.8 hPa South 4.8 km/h 11.3 km/h 95% 0 mm
10:10 0.2 °C -0.5 °C 1014.4 hPa SSW 4.8 km/h 11.3 km/h 95% 0 mm
10:15 0.2 °C -0.5 °C 1014.4 hPa SSW 8 km/h 12.9 km/h 95% 0 mm
10:20 0.2 °C -0.6 °C 1014.1 hPa SSW 1.6 km/h 12.9 km/h 95% 0 mm
10:25 0.2 °C -0.6 °C 1014.1 hPa SSW 6.4 km/h 12.9 km/h 95% 0 mm
10:30 0.2 °C -0.5 °C 1014.1 hPa South 3.2 km/h 11.3 km/h 95% 0 mm
10:35 0.3 °C -0.4 °C 1013.8 hPa SSW 4.8 km/h 11.3 km/h 95% 0 mm
10:40 0.3 °C -0.4 °C 1013.8 hPa Calm   9.7 km/h 95% 0 mm
10:45 0.5 °C -0.2 °C 1013.4 hPa Calm   4.8 km/h 95% 0 mm
10:50 0.5 °C -0.2 °C 1013.4 hPa SSW 4.8 km/h 9.7 km/h 95% 0 mm
10:55 0.5 °C -0.2 °C 1013.4 hPa Calm   9.7 km/h 95% 0 mm
11:00 0.6 °C -0.1 °C 1013.4 hPa Calm   6.4 km/h 95% 0 mm
11:05 0.7 °C 0 °C 1013.1 hPa Calm     95% 0 mm
11:10 0.9 °C 0.2 °C 1012.8 hPa Calm     95% 0 mm
11:15 1.3 °C 0.6 °C 1012.4 hPa SSW 1.6 km/h 6.4 km/h 95% 0 mm
11:20 1.6 °C 0.8 °C 1012.4 hPa Calm   6.4 km/h 95% 0 mm
11:25 1.6 °C 0.9 °C 1012.4 hPa Calm   6.4 km/h 95% 0 mm
11:30 1.7 °C 0.9 °C 1012.1 hPa Calm     95% 0 mm
11:35 1.6 °C 0.9 °C 1011.7 hPa Calm     95% 0 mm
11:40 1.7 °C 0.9 °C 1011.7 hPa Calm     95% 0 mm
11:45 1.8 °C 1.1 °C 1011.4 hPa Calm     95% 0 mm
11:50 2 °C 1.3 °C 1011.1 hPa South 1.6 km/h 11.3 km/h 95% 0 mm
11:55 2.2 °C 1.4 °C 1011.1 hPa South 4.8 km/h 11.3 km/h 95% 0 mm
12:00 2.3 °C 1.6 °C 1011.1 hPa SW 3.2 km/h 11.3 km/h 95% 0 mm
12:05 2.3 °C 1.6 °C 1011.1 hPa SW 4.8 km/h 11.3 km/h 95% 0 mm
12:10 2.3 °C 1.6 °C 1011.1 hPa SW 1.6 km/h 8 km/h 95% 0 mm
12:15 2.4 °C 1.7 °C 1010.7 hPa Calm   9.7 km/h 95% 0 mm
12:20 2.4 °C 1.7 °C 1010.7 hPa Calm   9.7 km/h 95% 0 mm
12:25 2.5 °C 1.8 °C 1010.7 hPa SSW 3.2 km/h 8 km/h 95% 0 mm
12:35 2.9 °C 2.2 °C 1010.4 hPa SSW 1.6 km/h 12.9 km/h 95% 0 mm
12:40 3.1 °C 2.2 °C 1010 hPa SSW 3.2 km/h 12.9 km/h 94% 0 mm
12:45 3.2 °C 2.3 °C 1010 hPa SSW 4.8 km/h 11.3 km/h 94% 0 mm
12:50 3.2 °C 2.2 °C 1009.7 hPa SSW 9.7 km/h 14.5 km/h 93% 0 mm
12:55 2.8 °C 1.7 °C 1009.4 hPa SSW 6.4 km/h 14.5 km/h 92% 0 mm
13:00 2.7 °C 1.3 °C 1009 hPa SSW 3.2 km/h 12.9 km/h 91% 0 mm
13:05 2.6 °C 1.2 °C 1009 hPa SSW 3.2 km/h 12.9 km/h 91% 0 mm
13:10 2.6 °C 1.4 °C 1009 hPa SSW 6.4 km/h 14.5 km/h 92% 0 mm
13:15 2.6 °C 1.4 °C 1008.7 hPa SSW 4.8 km/h 14.5 km/h 92% 0 mm
13:20 2.7 °C 1.5 °C 1008.7 hPa SSW 3.2 km/h 11.3 km/h 92% 0 mm
13:25 2.7 °C 1.6 °C 1008.7 hPa South 6.4 km/h 12.9 km/h 92% 0 mm
13:30 2.8 °C 1.7 °C 1008.4 hPa SSW 8 km/h 22.5 km/h 92% 0 mm
13:35 3.1 °C 1.7 °C 1008.4 hPa South 9.7 km/h 22.5 km/h 91% 0 mm
13:40 3.2 °C 1.7 °C 1008.4 hPa South 11.3 km/h 20.9 km/h 90% 0 mm
13:50 3.3 °C 1.7 °C 1007.7 hPa South 6.4 km/h 14.5 km/h 89% 0 mm
13:55 3.3 °C 1.6 °C 1007.7 hPa South 6.4 km/h 25.7 km/h 88% 0 mm
14:00 3.4 °C 1.6 °C 1007.3 hPa SSW 9.7 km/h 25.7 km/h 88% 0 mm
14:05 3.6 °C 1.7 °C 1007.3 hPa SSW 9.7 km/h 24.1 km/h 87% 0 mm
14:10 3.8 °C 1.7 °C 1007 hPa South 8 km/h 25.7 km/h 86% 0 mm
14:15 3.9 °C 1.7 °C 1007 hPa South 9.7 km/h 25.7 km/h 85% 0 mm
14:20 4.1 °C 1.6 °C 1007 hPa South 8 km/h 24.1 km/h 84% 0 mm
14:25 4.3 °C 1.7 °C 1006.7 hPa South 9.7 km/h 24.1 km/h 83% 0 mm
14:35 4.4 °C 1.8 °C 1006.3 hPa South 6.4 km/h 19.3 km/h 83% 0 mm
14:40 4.4 °C 1.7 °C 1006 hPa SSE 8 km/h 16.1 km/h 82% 0 mm
14:45 4.3 °C 1.7 °C 1005.6 hPa SSE 6.4 km/h 16.1 km/h 83% 0 mm
14:50 4.2 °C 1.6 °C 1005.6 hPa South 6.4 km/h 16.1 km/h 83% 0 mm
14:55 4.2 °C 1.6 °C 1005.6 hPa SSW 6.4 km/h 16.1 km/h 83% 0 mm
15:00 4.1 °C 1.5 °C 1005.6 hPa South 6.4 km/h 16.1 km/h 83% 0 mm
15:05 4.1 °C 1.5 °C 1005.6 hPa South 6.4 km/h 16.1 km/h 83% 0 mm
15:10 4.1 °C 1.4 °C 1005.3 hPa South 4.8 km/h 17.7 km/h 83% 0 mm
15:20 4.3 °C 1.5 °C 1004.6 hPa South 9.7 km/h 20.9 km/h 82% 0 mm
15:25 4.3 °C 1.6 °C 1004.3 hPa South 6.4 km/h 19.3 km/h 82% 0 mm
15:30 4.3 °C 1.5 °C 1004.3 hPa South 6.4 km/h 19.3 km/h 82% 0 mm
15:35 4.3 °C 1.3 °C 1003.9 hPa South 6.4 km/h 16.1 km/h 81% 0 mm
15:40 4.3 °C 1.3 °C 1003.9 hPa SSW 3.2 km/h 22.5 km/h 81% 0 mm
15:50 4.2 °C 1.2 °C 1003.6 hPa South 4.8 km/h 11.3 km/h 81% 0 mm
15:55 4.1 °C 1.2 °C 1003.6 hPa South 6.4 km/h 14.5 km/h 81% 0 mm
16:00 4.1 °C 1.1 °C 1003.3 hPa SSW 6.4 km/h 20.9 km/h 81% 0 mm
16:05 4.2 °C 1.1 °C 1002.9 hPa South 6.4 km/h 20.9 km/h 80% 0 mm
16:10 4.3 °C 1.1 °C 1002.9 hPa SSW 6.4 km/h 14.5 km/h 80% 0 mm
16:15 4.3 °C 1.1 °C 1002.9 hPa SSW 6.4 km/h 16.1 km/h 80% 0 mm
16:20 4.3 °C 0.9 °C 1003.3 hPa SSW 8 km/h 16.1 km/h 79% 0 mm
16:25 4.3 °C 1 °C 1003.3 hPa SSW 9.7 km/h 16.1 km/h 79% 0 mm
16:30 4.3 °C 1 °C 1003.3 hPa South 6.4 km/h 16.1 km/h 79% 0 mm
16:35 4.3 °C 1 °C 1003.3 hPa SSW 8 km/h 17.7 km/h 79% 0 mm
16:40 4.4 °C 1.1 °C 1003.3 hPa South 8 km/h 17.7 km/h 79% 0 mm
16:45 4.3 °C 1 °C 1003.3 hPa SSW 6.4 km/h 17.7 km/h 79% 0 mm
16:50 4.3 °C 0.9 °C 1003.3 hPa South 9.7 km/h 19.3 km/h 79% 0 mm
16:55 4.2 °C 0.9 °C 1003.3 hPa South 8 km/h 19.3 km/h 79% 0 mm
17:00 4.2 °C 0.9 °C 1003.3 hPa South 8 km/h 20.9 km/h 79% 0 mm
17:05 4.2 °C 0.9 °C 1002.9 hPa South 6.4 km/h 20.9 km/h 79% 0 mm
17:10 4.2 °C 1.1 °C 1002.6 hPa South 9.7 km/h 17.7 km/h 80% 0 mm
17:15 4.2 °C 1.1 °C 1002.6 hPa South 8 km/h 16.1 km/h 80% 0 mm
17:20 4.3 °C 1.1 °C 1002.3 hPa SSW 9.7 km/h 19.3 km/h 80% 0 mm
17:25 4.4 °C 1.1 °C 1002.3 hPa South 8 km/h 20.9 km/h 79% 0 mm
17:35 4.3 °C 1 °C 1002.6 hPa South 4.8 km/h 20.9 km/h 79% 0 mm
17:40 4.3 °C 1 °C 1002.6 hPa SW 8 km/h 20.9 km/h 79% 0 mm
17:45 4.3 °C 0.9 °C 1002.6 hPa SSW 4.8 km/h 16.1 km/h 79% 0 mm
17:50 4.2 °C 1 °C 1002.6 hPa SSW 3.2 km/h 11.3 km/h 80% 0 mm
17:55 4.1 °C 1.1 °C 1002.6 hPa SSW 3.2 km/h 11.3 km/h 81% 0 mm
18:00 3.9 °C 1.2 °C 1001.9 hPa South 1.6 km/h 11.3 km/h 82% 0 mm
18:05 3.9 °C 1.3 °C 1001.9 hPa SSW 4.8 km/h 16.1 km/h 83% 0 mm
18:10 3.9 °C 1.3 °C 1001.6 hPa South 8 km/h 22.5 km/h 83% 0 mm
18:15 4 °C 1.6 °C 1001.6 hPa South 4.8 km/h 22.5 km/h 84% 0 mm
18:20 4.1 °C 1.7 °C 1001.6 hPa South 6.4 km/h 19.3 km/h 84% 0 mm
18:25 4.2 °C 1.7 °C 1001.6 hPa South 6.4 km/h 14.5 km/h 84% 0 mm
18:30 4.2 °C 1.7 °C 1001.9 hPa SSW 4.8 km/h 14.5 km/h 84% 0 mm
18:35 4.2 °C 1.8 °C 1002.3 hPa WSW 6.4 km/h 12.9 km/h 84% 0 mm
18:40 4.3 °C 2 °C 1002.3 hPa SW 3.2 km/h 12.9 km/h 85% 0 mm
18:45 4.3 °C 2.1 °C 1002.3 hPa SW 1.6 km/h 12.9 km/h 85% 0 mm
18:50 4.3 °C 2.1 °C 1002.3 hPa SSW 6.4 km/h 11.3 km/h 85% 0 mm
18:55 4.4 °C 2.2 °C 1001.9 hPa SSW 9.7 km/h 17.7 km/h 85% 0 mm
19:00 4.6 °C 2.3 °C 1001.9 hPa SSW 11.3 km/h 25.7 km/h 85% 0 mm
19:05 4.7 °C 2.4 °C 1001.9 hPa SSW 8 km/h 25.7 km/h 85% 0 mm
19:10 4.7 °C 2.4 °C 1001.9 hPa SSW 11.3 km/h 22.5 km/h 85% 0 mm
19:15 4.7 °C 2.4 °C 1001.9 hPa SSW 11.3 km/h 24.1 km/h 85% 0 mm
19:20 4.8 °C 2.4 °C 1001.9 hPa SSW 11.3 km/h 24.1 km/h 85% 0 mm
19:25 4.9 °C 2.4 °C 1001.6 hPa SSW 11.3 km/h 27.4 km/h 84% 0 mm
19:30 4.9 °C 2.4 °C 1001.6 hPa SSW 8 km/h 27.4 km/h 84% 0 mm
19:40 5 °C 3.2 °C 1001.6 hPa SW 11.3 km/h 24.1 km/h 88% 0 mm
19:45 5.1 °C 2.4 °C 1001.6 hPa SW 9.7 km/h 20.9 km/h 83% 0 mm
19:50 5.1 °C 2.4 °C 1001.6 hPa SW 8 km/h 20.9 km/h 83% 0 mm
19:55 5.1 °C 2.4 °C 1001.2 hPa SSW 8 km/h 19.3 km/h 83% 0 mm
20:00 5.1 °C 2.4 °C 1001.2 hPa SSW 6.4 km/h 19.3 km/h 83% 0 mm
20:05 5.1 °C 2.4 °C 1000.9 hPa SSW 9.7 km/h 19.3 km/h 83% 0 mm
20:10 5 °C 2.5 °C 1000.9 hPa SSW 9.7 km/h 20.9 km/h 84% 0 mm
20:15 4.9 °C 2.4 °C 1001.2 hPa SSW 8 km/h 20.9 km/h 84% 0 mm
20:20 4.9 °C 2.4 °C 1001.2 hPa SSW 8 km/h 20.9 km/h 84% 0 mm
20:30 5 °C 2.5 °C 1000.9 hPa SSW 8 km/h 17.7 km/h 84% 0 mm
20:40 5.3 °C 2.6 °C 1000.2 hPa South 11.3 km/h 25.7 km/h 83% 0 mm
20:45 5.3 °C 2.6 °C 999.9 hPa South 11.3 km/h 25.7 km/h 83% 0 mm
20:50 5.3 °C 2.7 °C 999.5 hPa SSW 11.3 km/h 27.4 km/h 83% 0 mm
20:55 5.3 °C 2.7 °C 999.5 hPa South 12.9 km/h 27.4 km/h 83% 0 mm
21:00 5.5 °C 2.7 °C 999.5 hPa SSW 11.3 km/h 27.4 km/h 82% 0 mm
21:05 5.6 °C 2.7 °C 999.9 hPa SSW 12.9 km/h 29 km/h 82% 0 mm
21:10 5.6 °C 2.7 °C 999.9 hPa SSW 14.5 km/h 29 km/h 82% 0 mm
21:15 5.7 °C 2.8 °C 999.5 hPa SSW 11.3 km/h 29 km/h 82% 0 mm
21:20 5.8 °C 2.9 °C 999.9 hPa SSW 16.1 km/h 33.8 km/h 82% 0 mm
21:25 5.8 °C 2.9 °C 999.5 hPa SSW 11.3 km/h 33.8 km/h 82% 0 mm
21:30 5.8 °C 3 °C 999.5 hPa SSW 16.1 km/h 29 km/h 82% 0 mm
21:35 5.9 °C 2.9 °C 999.5 hPa SSW 14.5 km/h 32.2 km/h 81% 0 mm
21:40 5.9 °C 2.9 °C 999.5 hPa SSW 14.5 km/h 32.2 km/h 81% 0 mm
21:50 5.9 °C 2.9 °C 999.2 hPa SSW 14.5 km/h 30.6 km/h 81% 0 mm
21:55 5.9 °C 2.9 °C 999.2 hPa SSW 14.5 km/h 33.8 km/h 81% 0 mm
22:00 5.9 °C 3.1 °C 999.2 hPa SSW 12.9 km/h 33.8 km/h 82% 0 mm
22:05 5.9 °C 3.1 °C 999.2 hPa SSW 14.5 km/h 29 km/h 82% 0 mm
22:10 5.9 °C 3.1 °C 998.9 hPa SSW 9.7 km/h 24.1 km/h 82% 0 mm
22:15 5.9 °C 3.1 °C 998.9 hPa SSW 14.5 km/h 30.6 km/h 82% 0 mm
22:20 5.8 °C 3.2 °C 998.5 hPa SSW 11.3 km/h 30.6 km/h 83% 0 mm
22:25 5.8 °C 3.2 °C 998.5 hPa SSW 17.7 km/h 33.8 km/h 83% 0 mm
22:30 5.9 °C 3.2 °C 998.5 hPa SSW 17.7 km/h 40.2 km/h 83% 0 mm
22:35 5.8 °C 3.2 °C 998.5 hPa SSW 12.9 km/h 40.2 km/h 83% 0 mm
22:40 5.8 °C 3.2 °C 998.5 hPa SSW 9.7 km/h 29 km/h 83% 0 mm
22:45 5.8 °C 3.2 °C 998.2 hPa SSW 14.5 km/h 32.2 km/h 83% 0 mm
22:50 5.8 °C 3.2 °C 998.2 hPa SSW 12.9 km/h 33.8 km/h 83% 0 mm
22:55 5.8 °C 3.2 °C 998.2 hPa SSW 12.9 km/h 33.8 km/h 83% 0 mm
23:00 5.8 °C 3.2 °C 998.2 hPa SSW 11.3 km/h 30.6 km/h 83% 0 mm
23:05 5.8 °C 3.3 °C 997.9 hPa SSW 11.3 km/h 35.4 km/h 84% 0 mm
23:15 5.8 °C 3.3 °C 997.9 hPa SSW 9.7 km/h 30.6 km/h 84% 0 mm
23:20 5.8 °C 3.3 °C 997.9 hPa SSW 11.3 km/h 29 km/h 84% 0 mm
23:25 5.7 °C 3.2 °C 997.5 hPa SSW 16.1 km/h 32.2 km/h 84% 0 mm
23:30 5.7 °C 3.2 °C 997.5 hPa SSW 9.7 km/h 32.2 km/h 84% 0 mm
23:35 5.7 °C 3.3 °C 997.2 hPa South 12.9 km/h 24.1 km/h 85% 0 mm
23:40 5.7 °C 3.3 °C 997.2 hPa SSW 11.3 km/h 25.7 km/h 85% 0 mm
23:45 5.7 °C 3.3 °C 997.2 hPa SSW 12.9 km/h 27.4 km/h 85% 0 mm
23:50 5.7 °C 3.4 °C 997.2 hPa SSW 16.1 km/h 29 km/h 85% 0 mm
23:55 5.7 °C 3.3 °C 997.2 hPa SSW 9.7 km/h 33.8 km/h 85% 0 mm
Westford Weather
Compliments of Weather Underground

 
 
Current Radar Loop:

Copyright © WestfordWeather.net 2007-2014. All rights reserved.